Regional Weather Roundup
Issued by NWS

Home | Current Version | Previous Version | Text Only | Print | Product List | Glossary Off
Versions: 1 2 3 4 5 6 7 8 9 10 11 12 13 14 15 16 17 18 19 20 21 22 23 24 25 26 27 28 29 30 31 32 33 34 35 36 37 38 39 40 41 42 43 44 45 46 47 48 49 50

000
ASUS43 KDMX 232207
RWRIA

WEATHER ROUNDUP FOR IOWA
NATIONAL WEATHER SERVICE DES MOINES IA
500 PM CDT SAT MAY 23 2015

NOTE: "FAIR" INDICATES FEW OR NO CLOUDS BELOW 12,000 FEET WITH NO
SIGNIFICANT WEATHER AND/OR OBSTRUCTIONS TO VISIBILITY.

* - THESE STATIONS ARE NOT NWS STATIONS...THUS NOT UNDER NWS
QUALITY CONTROL.  THEY ALSO DO NOT REPORT WEATHER SUCH
AS PRECIPITATION OR FOG.

IAZ001>003-012>014-020>022-031>034-043>046-232300-
   NORTHWEST IOWA

CITY           SKY/WX    TMP DP  RH WIND       PRES   REMARKS
CARROLL *      CLOUDY    68  54  60 S14G21    30.12F
CHEROKEE *     CLOUDY    66  54  63 S8        30.12S
DENISON *      CLOUDY    64  59  82 S9        30.11S
LE MARS *      CLOUDY    66  54  63 S10       30.11F
ORANGE CITY *  CLOUDY    64  52  63 S10       30.11S
SHELDON *      CLOUDY    68  48  49 SE13      30.10S
SIOUX CITY     CLOUDY    64  54  69 S14       30.12S
SPENCER        CLOUDY    68  46  45 S14       30.12F
STORM LAKE *   CLOUDY    68  52  56 S14G21    30.13S
$$

IAZ055>058-069>071-079>083-090>094-232300-
   SOUTHWEST IOWA

CITY           SKY/WX    TMP DP  RH WIND       PRES   REMARKS
ATLANTIC *     CLOUDY    68  57  68 S10       30.12S
AUDUBON *      PTSUNNY   66  57  72 S12       30.13F
CLARINDA *     CLOUDY    66  59  77 S7G17     30.13F
COUNCIL BLFS * CLOUDY    64  63  94 SE5       30.12S
CRESTON *      CLOUDY    68  57  68 S17       30.13S
HARLAN  *      CLOUDY    66  61  82 S13       30.15F
LAMONI         CLOUDY    71  56  58 SE16G23   30.12F
RED OAK *      CLOUDY    68  59  73 SE8       30.11F
SHENANDOAH *   CLOUDY    68  59  73 SE15      30.11F
$$

IAZ047>049-059>061-072>074-084-232300-
   CENTRAL IOWA

CITY           SKY/WX    TMP DP  RH WIND       PRES   REMARKS
AMES           CLOUDY    72  49  44 SE13G21   30.12F
ANKENY *       CLOUDY    73  52  46 S12G18    30.12F
CHARITON *     MOSUNNY   72  52  49 SE16G23   30.14S
DES MOINES     CLOUDY    73  53  49 S13       30.13F
GRINNELL*      PTSUNNY   75  48  38 SE16G22   30.14F
KNOXVILLE *    PTSUNNY   75  52  43 S15G23    30.12F
MARSHALLTOWN   PTSUNNY   74  46  36 SE16      30.13F
PELLA *        PTSUNNY   75  55  50 S14       30.15S
PERRY *        CLOUDY    70  54  56 S10       30.13S
$$

IAZ004>006-015-016-023>025-035-036-232300-
   NORTH CENTRAL IOWA

CITY           SKY/WX    TMP DP  RH WIND       PRES   REMARKS
ALGONA *       CLOUDY    66  50  55 S7        30.14F
CLARION *      CLOUDY    72  41  33 S17       30.13F
ESTHERVILLE    CLOUDY    68  46  45 S21G31    30.13F
FORT DODGE *   CLOUDY    68  48  49 S9G16     30.15S
MASON CITY     PTSUNNY   74  46  36 SE15G23   30.15F
FOREST CITY *  LGT RAIN  68  46  45 S14G21    30.15S
IOWA FALLS *   PTSUNNY   75  46  35 SE15G25   30.15F
$$

IAZ007>011-017>019-026>030-037>042-050>054-066-232300-
   NORTHEAST IOWA

CITY           SKY/WX    TMP DP  RH WIND       PRES   REMARKS
CEDAR RAPIDS   CLOUDY    76  51  41 S10       30.16F
CHARLES CITY * SUNNY     75  45  33 SE12G18   30.16F
CLINTON *      PTSUNNY   77  46  33 S13       30.21F
DECORAH *      MOSUNNY   75  41  29 S9        30.16F
DUBUQUE        CLOUDY    74  46  36 SW9       30.19F
MONTICELLO *   MOSUNNY   75  46  35 S10       30.18F
OELWEIN *      SUNNY     77  46  33 S13G20    30.17F
WATERLOO       MOSUNNY   75  48  38 SE15      30.14F
$$

IAZ064-065-067-068-078-232300-
   EAST CENTRAL IOWA

CITY           SKY/WX    TMP DP  RH WIND       PRES   REMARKS
DAVENPORT      PTSUNNY   80  48  32 S13       30.19F
IOWA CITY      PTSUNNY   76  49  38 S10G21    30.17F
MT. PLEASANT * MOSUNNY   75  43  31 S12       30.18S
MUSCATINE *    MOSUNNY   79  50  36 SE8G17    30.17F
QUAD CITIES    PTSUNNY   78  48  34 S8G17     30.17F
$$

IAZ062-063-075>077-085>089-095>099-232300-
   SOUTHEAST IOWA

CITY           SKY/WX    TMP DP  RH WIND       PRES   REMARKS
BURLINGTON     PTSUNNY   75  48  38 S10       30.18F
FAIRFIELD *    MOSUNNY   75  46  35 S17       30.17F
FORT MADISON * PTSUNNY   75  48  38 S9        30.19S
KEOKUK *       MOSUNNY   75  50  41 SE7G15    30.17F
OSKALOOSA *    CLOUDY    75  45  33 S17       30.15F
CENTERVILLE *  SUNNY     72  72 100 SE12      30.17S
OTTUMWA        CLOUDY    73  50  44 S16       30.15F
WASHINGTON *   SUNNY     77  45  31 S13G21    30.18F
$$

ABBREVIATIONS USED IN REMARKS
   TC - TEMPERATURES IN CELSIUS
  WCI - WIND CHILL INDEX
   HX - HEAT INDEX
  VSB - VISIBILITY
$$




USA.gov is the U.S. government's official web portal to all federal, state and local government web resources and services.